星链-1570 (STARLINK-1570 )

导读 | 豆包AI

STARLINK-1570是美国太空探索技术公司星链计划的卫星之一,于2020年8月7日发射升空,属于星链星座部署过程中的一员,承担卫星互联网组网任务,为全球提供低延迟、高速率的宽带互联网服务,运行在近地轨道,推动了全球互联覆盖,也引发了天文观测等领域对空间环境的相关讨论。

基本信息
目录编号:
46059
目录名称:
STARLINK-1570
国际标识:
2020-055AJ
轨道中心:
EARTH
卫星名称:
星链-1570
卫星全名:
星链-1570 (STARLINK-1570 )
卫星状态:
在轨 (已飞行2045 天)
发射日期:
2020-08-07 UTC
国别 :
美国 (US)
星等 :
--
轨道信息
数据来源 国际轨道数据 AOE轨道数据
星历时间 2026-03-13T18:26:52+0800
23小时前
查看轨道信息
2026-03-14T01:00:00+0800
17小时前
查看轨道信息
半长轴 6853.345km 6853.38km
偏心率 0.0001607 0.0001578
轨道倾角 53.159° 53.159°
近地点辐角 80.305° 70.277°
升交点赤经 96.513° 95.247°
平近点角 279.813° 354.606°
近地点 474.106km 474.161km
远地点 476.31km 476.325km
周期 94.105分钟 94.106分钟
每日圈数 15.302026 15.301909
详细信息
固有亮度:
5
最大亮度:
2.5
卫星平台:
Starlink V1.0
覆盖范围:
全球
运营商:
太空探索技术公司
运营商所在国:
美国
制造商(研发单位):
太空探索技术公司
制造商所在国:
美国
使用方式:
暂无
卫星简介
星链(Starlink)计划是由太空探索技术公司(SpaceX)提出的一个巨型低轨卫星互联网星座项目,计划在2019年至2024年间在太空搭建由约1.2万颗卫星组成的“星链”网络,其中1584颗将部署在地球上空550千米处的近地轨道,并从2020年开始工作。该卫星仍在工作。
2D轨道图
3D轨道图
轨道高度分析图
轨道倾角分析图
轨道综合分析图
查看轨道综合分析图